Date,TemperatureHighF,TemperatureAvgF,TemperatureLowF,DewpointHighF,DewpointAvgF,DewpointLowF,HumidityHigh,HumidityAvg,HumidityLow,PressureMaxIn,PressureMinIn,WindSpeedMaxMPH,WindSpeedAvgMPH,GustSpeedMaxMPH,PrecipitationSumIn
2013-3-1,68.8,54.2,39.6,50.4,43.4,34.5,89,68,48,30.42,30.23,13,3,13,0.00
2013-3-2,73.1,57.6,43.7,55.7,47.0,37.8,84,69,52,30.24,30.04,8,2,8,0.00
2013-3-3,64.1,56.0,47.5,50.7,46.1,41.3,83,70,51,30.09,30.01,15,4,15,0.00
2013-3-4,60.7,49.4,41.6,50.3,40.8,35.3,83,72,63,30.12,30.02,9,2,9,0.00
2013-3-5,61.4,50.1,38.0,45.2,39.5,32.6,86,68,44,30.05,29.81,21,6,21,0.00
2013-3-6,58.1,50.9,40.7,44.9,40.6,33.1,84,69,53,30.06,29.81,24,6,24,0.09
2013-3-7,57.8,47.2,36.5,43.3,38.0,30.8,84,71,50,29.98,29.83,10,2,10,0.09
2013-3-8,60.1,49.2,40.9,48.0,42.4,36.4,88,78,61,30.04,29.81,21,6,21,0.02
2013-3-9,66.2,50.9,38.2,45.4,37.7,28.7,88,64,25,30.29,30.04,16,4,16,0.00
2013-3-10,66.6,50.8,35.1,42.8,34.0,26.1,82,57,22,30.33,30.23,12,3,12,0.00
2013-3-11,72.4,53.5,36.9,47.4,38.1,29.7,79,58,34,30.25,30.09,9,2,9,0.00
2013-3-12,73.3,56.1,39.6,49.1,41.9,32.7,79,61,39,30.14,30.05,11,2,11,0.00
2013-3-13,75.8,59.0,42.1,54.9,46.4,35.7,82,64,46,30.15,30.05,13,3,13,0.00
2013-3-14,77.0,59.4,45.7,60.1,48.1,40.0,84,67,52,30.15,30.06,11,2,11,0.00
2013-3-15,74.2,56.6,42.7,54.9,43.6,35.2,80,63,46,30.12,30.02,9,2,9,0.00
2013-3-16,71.6,55.8,45.0,54.3,45.4,40.5,87,70,41,30.09,30.01,13,3,13,0.00
2013-3-17,69.3,53.4,39.4,47.5,40.6,33.5,82,64,33,30.12,30.02,10,2,10,0.00
2013-3-18,69.8,53.5,37.4,49.2,40.9,31.4,82,64,45,30.11,30.01,10,2,10,0.00
2013-3-19,74.2,55.9,42.8,50.0,42.6,35.5,80,63,38,30.12,30.04,12,2,12,0.08
2013-3-20,68.2,57.2,51.1,54.7,49.8,45.2,88,77,53,30.12,30.04,15,4,15,0.04
2013-3-21,64.6,53.5,44.3,48.6,42.0,36.5,84,67,41,30.11,29.99,13,4,13,0.00
2013-3-22,66.1,52.3,38.9,36.8,23.5,11.4,80,39,15,30.10,30.01,20,5,20,0.00
2013-3-23,67.1,53.6,40.9,35.7,28.5,23.2,53,39,24,30.14,30.02,10,4,10,0.00
2013-3-24,73.1,54.2,36.9,48.4,36.8,27.2,71,53,34,30.07,29.94,10,2,10,0.00
2013-3-25,66.6,51.6,38.3,48.3,40.4,31.4,81,66,47,30.00,29.92,11,3,11,0.00
2013-3-26,70.2,55.7,46.4,51.2,44.4,39.5,80,67,47,29.99,29.90,9,4,9,0.00
2013-3-27,68.8,56.4,43.9,52.2,46.3,37.2,82,70,53,30.00,29.93,13,4,13,0.00
2013-3-28,72.4,61.2,52.9,55.1,50.4,46.3,82,69,49,30.07,29.99,10,2,10,0.00
2013-3-29,76.0,62.0,49.9,54.5,49.3,44.3,84,65,44,30.08,29.99,13,4,13,0.00
2013-3-30,74.0,61.8,54.7,56.3,50.7,46.5,81,68,44,30.05,29.95,13,3,13,0.08
2013-3-31,69.5,59.6,49.9,54.2,50.0,44.8,85,72,50,30.07,29.97,14,3,14,0.06